SCP
0 0 0 0 0 0 0 0 0 0 0 0 0 0 0 0 0 0 0 0 0 0 0 0 0 0 0 0 0 0 0 0 0 0 0 0 0 0 0 0 0 0 0 0 1
0 0 0 0 0 0 0 0 0 0 0 0 0 0 0 0 0 0 0 0 0 0 0 0 0 0 0 0 0 0 0 0 0 0 0 0 0 0 0 0 0 0 0 0 1
0 0 0 0 0 0 0 0 0 0 0 0 0 0 0 0 0 0 0 0 -0 0 0 0 0 0 0 0 0 0 0 0 0 0 0 0 0 0 0 0 0 0 0 0 0
0 0 0 0 0 0 0 0 0 0 0 0 0 0 0 0 0 0 0 0 0 0 0 0 0 0 0 0 0 0 0 0 0 0 0 0 0 0 0 0 0 0 0 0 0
0 0 0 0 0 0 0 0 0 0 0 0 0 0 0 0 0 0 0 0 0 0 0 0 0 0 0 0 0 0 0 0 0 0 0 0 0 0 0 0 0 0 0 0 0
0 0 0 0 0 0 0 0 0 0 0 0 0 0 0 0 0 0 0 0 0 0 0 0 0 0 0 0 0 0 0 0 0 0 0 0 0 0 0 0 0 0 0 0 0
0 0 0 0 0 0 0 0 0 0 0 0 0 0 0 0 0 0 0 0 0 0 0 0 0 0 0 0 0 0 0 0 0 0 0 0 0 0 0 0 0 0 0 0 0
0 0 0 0 0 0 0 0 0 0 0 0 0 0 0 0 0 0 0 0 0 0 0 0 0 0 0 0 0 0 0 0 0 0 0 0 0 0 0 0 0 0 0 0 0
0 0 0 0 0 0 0 0 0 0 0 0 0 0 0 0 0 0 0 0 0 0 0 0 0 0 0 0 0 0 0 0 0 0 0 0 0 0 0 0 0 0 0 0 0
0 0 0 0 0 0 0 0 0 0 0 0 0 0 0 0 0 0 0 0 0 0 0 0 0 0 0 0 0 0 0 0 0 0 0 0 0 0 0 0 0 0 0 0 0
0 0 0 0 0 0 0 -0 -0 0 0 0 0 0 0 0 0 0 0 0 0 0 0 0 0 0 0 0 0 0 0 0 0 0 0 0 0 0 0 0 0 0 0 0 0
0 0 0 0 0 0 0 0 0 0 0 0 -0 0 0 0 0 0 0 0 0 0 0 0 0 0 0 0 0 0 0 0 0 0 0 0 0 0 0 0 0 0 0 0 0
0 0 0 0 0 0 0 0 0 0 -0 0 0 0 0 0 0 0 0 0 0 0 0 0 0 0 0 0 0 0 0 0 0 0 0 0 0 0 0 0 0 0 0 0 0
0 0 0 0 0 0 0 0 0 0 0 0 0 0 0 0 0 0 0 -0 0 0 0 0 0 0 0 0 0 0 0 0 0 0 0 0 0 0 0 0 0 0 0 0 0
0 0 0 0 0 0 0 0 -0 0 0 0 0 -0 0 0 0 0 0 -0 -0 0 0 0 0 0 0 0 0 0 0 0 0 0 0 0 0 0 0 0 0 0 0 0 0
-0 -0 0 0 0 0 -0 0 0 0 0 0 0 0 0 -0 -0 -0 -0 0 0 0 0 0 0 0 0 0 0 0 0 0 0 0 0 0 0 -0 0 0 0 0 0 0 0
-0 -0 0 0 0 -0 0 0 0 0 0 0 0 -0 -0 -0 -0 -0 0 0 0 0 0 0 0 0 0 0 0 0 0 0 0 0 0 0 0 0 0 0 0 0 0 0 0
-0 -0 0 0 0 0 0 0 0 0 0 0 0 0 0 0 -0 0 -0 -0 -0 0 0 0 0 0 0 0 0 0 0 0 0 0 0 0 0 0 0 0 -0 0 0 0 0
0 0 0 0 0 0 0 0 0 0 0 0 0 0 0 0 0 0 -0 -0 -0 -0 0 0 0 0 0 0 0 0 0 0 0 0 0 0 0 0 0 -0 0 0 0 0 0
0 0 -0 0 0 0 0 0 0 0 0 0 0 0 0 0 -0 0 0 -0 -0 -0 -0 0 0 0 0 -0 0 0 0 0 0 0 0 0 0 0 0 0 0 0 0 0 0
0 -0 0 0 0 0 0 0 0 0 0 0 0 0 0 0 -0 -0 0 -0 -0 0 -0 -0 0 0 0 0 0 0 0 0 0 0 0 0 0 0 0 0 0 0 0 0 0
0 0 0 0 0 0 0 0 0 0 0 0 0 0 0 0 -0 -0 -0 -0 -0 0 -0 0 0 -0 0 0 0 0 0 0 0 0 0 0 0 0 0 0 0 0 0 0 0
0 0 0 0 0 0 0 0 0 0 0 0 0 0 0 0 -0 -0 -0 -0 0 0 0 -0 0 0 0 0 0 0 0 0 0 0 0 0 0 0 0 0 -0 -0 0 0 0
0 0 0 0 0 0 0 0 0 0 0 0 0 0 0 -0 -0 -0 0 -0 0 0 0 -0 -0 0 0 0 0 0 0 0 0 0 0 0 0 0 -0 0 0 0 0 0 0
0 0 0 0 0 0 0 0 0 0 0 0 0 0 0 -0 -0 -0 0 -0 -0 -0 -0 -0 -0 -0 0 0 0 0 0 0 0 0 0 0 0 0 0 0 0 0 0 0 0
0 0 0 0 0 0 0 0 0 0 0 0 0 0 0 -0 -0 -0 0 -0 0 0 0 -0 0 -0 -0 0 0 0 0 0 0 0 0 0 0 0 0 0 -0 0 0 0 0
0 0 0 0 0 0 0 0 0 0 0 0 0 -0 -0 -0 -0 -0 -0 0 0 0 0 0 0 -0 0 0 0 0 0 0 0 0 -0 0 0 0 0 0 0 0 0 0 0
Wind_Speed_500mb
34 34 36 38 41 43 44 44 44 44 44 42 40 40 37 41 54 52 58 47 40 30 35 25 34 25 16 10 8 10 11 17 22 21 11 11 17 21 12 16 15 15 6 8 41
38 39 42 43 45 47 47 48 48 48 47 45 41 40 44 37 53 67 58 44 49 42 42 41 40 33 17 15 13 20 10 17 12 19 14 10 13 20 15 25 25 17 15 16 44
40 41 46 47 48 49 50 52 50 48 46 44 43 40 36 31 44 23 10 13 19 44 40 36 32 34 28 23 23 17 17 25 17 17 15 16 19 20 20 27 28 31 33 30 54
42 45 46 50 53 54 57 58 57 55 51 47 45 38 29 17 16 15 13 14 16 40 43 41 42 34 21 28 36 20 39 43 18 19 16 26 33 32 34 43 13 21 24 34 47
39 46 50 53 56 59 62 63 62 58 54 50 46 38 25 19 60 44 27 22 27 47 54 54 53 44 26 23 33 42 27 29 39 38 39 38 42 39 34 32 38 23 20 31 45
46 49 54 55 60 62 66 65 64 58 53 51 46 33 28 40 63 53 54 33 40 57 57 57 39 44 18 35 39 21 45 43 30 35 33 36 44 44 26 45 54 48 40 33 45
46 51 52 62 63 67 71 70 65 56 57 56 45 32 45 83 53 45 47 44 61 59 65 65 56 43 23 20 49 45 37 32 39 33 27 20 40 52 57 51 45 40 50 47 48
55 59 61 64 65 71 81 77 66 63 58 51 27 24 37 44 46 52 62 35 43 56 59 54 54 50 47 26 14 26 37 32 18 40 34 21 40 13 42 60 58 54 50 50 52
51 54 59 67 71 74 81 81 66 50 40 23 18 23 32 30 27 29 42 62 40 35 45 50 53 57 40 39 29 37 37 36 30 21 20 39 38 28 47 38 47 52 54 52 53
58 55 58 60 67 76 76 80 46 31 14 9 7 14 32 15 20 25 20 31 47 32 36 47 33 25 31 33 50 30 32 36 43 26 39 37 47 34 35 30 48 52 56 59 53
61 56 56 61 63 70 73 50 35 9 35 21 25 44 52 34 44 30 24 25 42 42 44 58 31 39 91 54 39 42 44 49 38 30 32 40 44 39 47 51 46 47 52 60 67
57 57 55 59 60 53 61 27 23 31 35 51 60 64 71 67 69 54 22 30 34 48 49 32 59 85 47 46 47 42 42 51 31 20 22 30 45 41 44 46 54 56 60 56 60
58 55 54 54 52 45 43 25 38 49 19 42 16 20 14 46 35 36 55 61 40 47 51 63 76 57 49 41 50 48 51 40 41 26 33 21 42 53 54 56 64 63 64 66 65
58 58 52 53 29 49 29 32 44 36 11 14 7 14 40 56 10 48 42 68 49 49 52 57 69 35 61 58 53 46 49 48 41 30 21 31 27 40 33 33 47 58 66 67 71
56 55 50 46 47 35 34 37 52 4 14 14 12 16 64 21 41 10 49 20 48 43 22 52 40 56 46 68 49 47 31 46 36 34 11 24 13 32 31 43 40 37 59 73 76
57 52 53 49 45 32 26 46 15 7 14 18 24 47 58 25 25 26 23 41 24 39 48 38 43 40 70 48 45 52 30 43 35 28 22 37 27 46 41 47 37 39 64 68 76
58 55 53 43 27 18 39 28 8 10 30 24 44 55 45 34 37 21 34 39 26 16 33 38 44 47 35 49 42 49 29 15 18 16 23 28 30 49 9 23 29 37 47 54 69
58 54 41 20 15 21 39 8 7 18 26 32 35 43 33 41 31 34 23 14 32 29 19 14 17 38 29 44 36 29 21 15 26 25 25 33 22 28 18 34 56 59 47 50 66
57 53 23 14 17 32 18 7 10 17 15 22 38 25 31 32 23 28 20 17 13 34 19 15 13 8 34 32 41 36 30 39 3 4 8 20 25 24 37 42 35 42 52 46 58
60 49 8 17 32 32 6 9 9 10 20 26 17 18 32 31 28 34 25 21 22 25 18 9 20 23 29 41 40 35 21 20 16 13 28 25 22 18 23 21 17 20 30 40 45
44 22 14 28 33 6 5 6 10 16 20 9 23 19 18 26 29 24 20 12 27 32 23 21 10 25 22 27 33 22 11 15 16 26 22 25 21 13 13 16 15 16 4 22 37
23 12 26 26 14 4 7 7 15 21 19 11 11 10 15 26 20 15 20 12 28 37 20 12 9 18 20 44 20 39 27 30 18 23 29 6 14 15 17 7 10 6 8 9 19
24 15 22 24 8 15 15 20 24 22 18 12 15 12 24 19 14 19 14 31 31 30 21 19 16 18 17 11 23 11 13 21 29 6 32 29 28 21 24 10 14 13 18 21 23
10 8 13 15 3 5 20 25 12 17 28 16 18 23 20 24 18 21 32 14 40 34 21 18 5 8 10 21 22 23 36 29 18 15 24 35 31 39 16 12 15 8 14 23 31
3 6 13 10 24 27 32 16 29 14 10 12 11 15 18 13 32 27 33 34 19 21 14 11 12 12 22 37 36 33 35 34 19 20 21 33 41 26 27 33 14 8 23 23 19
8 12 11 35 25 23 26 8 24 23 9 19 22 32 26 22 33 37 36 31 17 15 19 16 11 24 16 22 24 33 34 33 33 29 28 39 34 17 17 28 21 34 42 13 4
25 34 20 20 17 19 19 25 12 21 16 13 25 32 32 29 30 38 43 49 37 34 35 20 9 11 12 20 33 12 2 23 13 18 25 31 39 19 25 28 30 39 18 16 8
Wind_Direction_500mb
360 356 350 346 344 340 337 335 333 329 324 319 316 309 303 306 298 291 276 283 273 242 227 216 203 198 196 198 170 172 235 239 244 237 233 219 232 229 256 244 231 222 236 185 187
356 356 350 346 341 338 334 331 329 327 326 323 319 315 313 303 305 291 292 271 255 226 208 204 189 186 196 201 192 204 229 239 247 233 246 260 253 264 252 234 229 232 233 180 184
357 354 344 344 339 335 332 329 328 324 321 317 315 313 313 315 315 288 263 243 234 200 206 198 191 181 202 189 194 198 225 231 229 230 253 261 261 255 257 250 249 227 217 201 188
354 347 344 341 340 335 331 328 325 321 321 317 309 304 306 314 275 247 250 238 212 187 192 183 181 186 207 208 207 226 232 240 230 229 253 255 265 250 248 251 278 246 215 201 202
344 347 344 343 337 332 327 325 323 321 319 311 304 296 295 249 251 261 237 225 184 185 189 190 191 200 204 215 207 227 235 238 245 252 248 256 254 256 256 252 252 238 225 211 203
346 343 340 341 336 333 328 325 320 320 313 304 299 291 257 252 279 270 237 218 196 200 203 202 209 212 250 227 214 211 234 249 252 251 249 243 250 245 239 241 247 241 234 225 215
343 339 339 336 338 334 333 324 321 321 306 298 287 260 247 246 269 265 260 235 221 210 214 213 214 201 214 236 234 237 251 245 243 244 252 250 251 241 239 238 241 240 236 231 223
343 338 334 336 334 333 333 325 321 312 303 292 285 238 249 265 272 255 241 242 226 218 221 223 215 224 227 230 218 221 237 245 242 226 227 212 252 208 233 232 238 238 233 229 226
334 334 332 332 332 334 335 332 329 313 301 294 249 216 265 274 258 269 243 233 228 228 215 217 217 219 222 228 240 227 233 218 239 207 199 205 259 252 239 228 232 232 227 225 226
332 330 330 333 333 337 338 339 336 310 309 334 198 227 255 273 282 285 261 229 217 225 223 215 215 215 222 211 221 214 221 234 242 213 222 224 250 265 251 242 233 234 228 222 219
337 332 331 333 335 342 347 356 7 323 325 269 275 253 288 295 294 271 258 213 203 212 211 204 210 216 222 213 231 239 230 241 239 226 233 245 257 256 252 245 241 238 231 228 221
339 338 337 335 339 346 352 16 12 326 302 285 273 273 273 282 280 259 273 212 200 214 209 204 214 223 220 217 218 230 237 241 248 206 229 245 262 259 254 249 245 237 235 229 224
338 336 337 337 340 346 353 352 335 335 287 308 277 266 19 338 264 280 244 239 225 231 214 209 219 229 225 217 217 215 221 224 226 212 226 251 266 264 256 249 243 237 235 232 224
338 346 340 340 344 333 339 328 326 330 282 277 3 39 341 338 259 296 275 239 240 243 228 229 236 227 217 220 208 220 213 226 236 228 239 197 264 248 247 244 232 233 227 228 226
339 347 340 339 320 322 324 330 326 139 292 30 7 339 336 339 293 314 327 257 230 230 221 222 225 228 226 221 211 231 211 224 225 222 224 206 263 255 250 251 243 229 228 224 222
342 343 334 330 323 327 330 328 324 234 262 356 337 332 336 352 354 311 338 315 248 239 240 249 236 227 228 228 218 224 224 221 231 233 241 243 227 269 248 253 247 240 234 227 220
336 339 331 323 321 334 340 333 279 261 3 356 337 335 328 330 331 344 345 34 34 308 217 226 230 232 224 221 217 207 205 188 210 216 241 238 229 242 262 264 254 247 239 230 220
343 340 337 337 332 342 347 306 289 330 341 328 328 318 330 356 328 336 357 20 31 13 307 287 212 206 206 209 200 207 195 205 217 228 229 204 238 236 248 246 249 248 248 234 222
346 341 339 341 327 333 332 298 314 348 323 324 319 328 341 346 335 352 13 33 52 34 3 332 308 136 196 212 205 201 218 223 329 226 260 229 243 261 249 250 259 259 243 233 226
346 337 322 317 327 330 287 281 309 326 324 320 313 322 330 345 345 351 1 35 7 13 343 295 290 260 210 209 219 204 191 194 208 214 224 230 234 263 273 274 297 264 240 236 229
349 334 316 326 329 329 291 293 296 288 307 306 311 304 310 346 333 345 13 357 13 337 330 289 265 319 270 198 191 201 196 196 223 228 238 250 250 269 129 106 64 26 3 239 232
349 319 316 347 318 328 297 300 307 299 306 271 284 276 293 335 319 328 334 346 353 331 325 297 289 305 290 301 260 203 197 196 207 201 227 232 239 128 114 30 333 331 309 285 235
332 296 334 352 326 334 325 286 300 291 302 300 296 285 308 318 317 299 325 331 341 333 355 337 1 323 349 13 32 3 337 249 220 269 212 216 230 157 292 349 27 348 348 335 308
342 313 327 330 315 292 319 306 291 298 289 284 276 299 317 311 302 300 309 338 327 320 340 353 336 316 323 311 294 300 305 308 318 204 198 219 234 235 194 294 310 319 338 351 336
338 307 316 299 315 309 299 271 298 297 250 288 283 285 322 292 310 299 316 322 315 308 341 10 280 288 285 278 277 275 280 287 285 283 238 230 227 233 267 298 296 322 332 337 352
308 315 281 286 298 299 302 278 285 293 268 295 288 308 303 294 298 298 308 304 307 304 320 331 285 313 272 270 262 287 297 292 274 264 261 252 258 259 279 282 278 280 298 294 335
317 307 277 281 302 301 309 313 290 306 287 272 301 304 305 310 308 295 286 279 266 275 285 278 271 316 289 319 314 312 46 327 294 255 244 241 251 260 264 264 267 276 281 247 189
Wind_Speed_850mb
34 34 36 38 41 43 44 44 44 44 44 42 40 40 37 41 54 52 58 47 40 30 35 25 34 25 16 10 8 10 11 17 22 21 11 11 17 21 12 16 15 15 6 8 41
38 39 42 43 45 47 47 48 48 48 47 45 41 40 44 37 53 67 58 44 49 42 42 41 40 33 17 15 13 20 10 17 12 19 14 10 13 20 15 25 25 17 15 16 44
40 41 46 47 48 49 50 52 50 48 46 44 43 40 36 31 44 23 10 13 19 44 40 36 32 34 28 23 23 17 17 25 17 17 15 16 19 20 20 27 28 31 33 30 54
42 45 46 50 53 54 57 58 57 55 51 47 45 38 29 17 16 15 13 14 16 40 43 41 42 34 21 28 36 20 39 43 18 19 16 26 33 32 34 43 13 21 24 34 47
39 46 50 53 56 59 62 63 62 58 54 50 46 38 25 19 60 44 27 22 27 47 54 54 53 44 26 23 33 42 27 29 39 38 39 38 42 39 34 32 38 23 20 31 45
46 49 54 55 60 62 66 65 64 58 53 51 46 33 28 40 63 53 54 33 40 57 57 57 39 44 18 35 39 21 45 43 30 35 33 36 44 44 26 45 54 48 40 33 45
46 51 52 62 63 67 71 70 65 56 57 56 45 32 45 83 53 45 47 44 61 59 65 65 56 43 23 20 49 45 37 32 39 33 27 20 40 52 57 51 45 40 50 47 48
55 59 61 64 65 71 81 77 66 63 58 51 27 24 37 44 46 52 62 35 43 56 59 54 54 50 47 26 14 26 37 32 18 40 34 21 40 13 42 60 58 54 50 50 52
51 54 59 67 71 74 81 81 66 50 40 23 18 23 32 30 27 29 42 62 40 35 45 50 53 57 40 39 29 37 37 36 30 21 20 39 38 28 47 38 47 52 54 52 53
58 55 58 60 67 76 76 80 46 31 14 9 7 14 32 15 20 25 20 31 47 32 36 47 33 25 31 33 50 30 32 36 43 26 39 37 47 34 35 30 48 52 56 59 53
61 56 56 61 63 70 73 50 35 9 35 21 25 44 52 34 44 30 24 25 42 42 44 58 31 39 91 54 39 42 44 49 38 30 32 40 44 39 47 51 46 47 52 60 67
57 57 55 59 60 53 61 27 23 31 35 51 60 64 71 67 69 54 22 30 34 48 49 32 59 85 47 46 47 42 42 51 31 20 22 30 45 41 44 46 54 56 60 56 60
58 55 54 54 52 45 43 25 38 49 19 42 16 20 14 46 35 36 55 61 40 47 51 63 76 57 49 41 50 48 51 40 41 26 33 21 42 53 54 56 64 63 64 66 65
58 58 52 53 29 49 29 32 44 36 11 14 7 14 40 56 10 48 42 68 49 49 52 57 69 35 61 58 53 46 49 48 41 30 21 31 27 40 33 33 47 58 66 67 71
56 55 50 46 47 35 34 37 52 4 14 14 12 16 64 21 41 10 49 20 48 43 22 52 40 56 46 68 49 47 31 46 36 34 11 24 13 32 31 43 40 37 59 73 76
57 52 53 49 45 32 26 46 15 7 14 18 24 47 58 25 25 26 23 41 24 39 48 38 43 40 70 48 45 52 30 43 35 28 22 37 27 46 41 47 37 39 64 68 76
58 55 53 43 27 18 39 28 8 10 30 24 44 55 45 34 37 21 34 39 26 16 33 38 44 47 35 49 42 49 29 15 18 16 23 28 30 49 9 23 29 37 47 54 69
58 54 41 20 15 21 39 8 7 18 26 32 35 43 33 41 31 34 23 14 32 29 19 14 17 38 29 44 36 29 21 15 26 25 25 33 22 28 18 34 56 59 47 50 66
57 53 23 14 17 32 18 7 10 17 15 22 38 25 31 32 23 28 20 17 13 34 19 15 13 8 34 32 41 36 30 39 3 4 8 20 25 24 37 42 35 42 52 46 58
60 49 8 17 32 32 6 9 9 10 20 26 17 18 32 31 28 34 25 21 22 25 18 9 20 23 29 41 40 35 21 20 16 13 28 25 22 18 23 21 17 20 30 40 45
44 22 14 28 33 6 5 6 10 16 20 9 23 19 18 26 29 24 20 12 27 32 23 21 10 25 22 27 33 22 11 15 16 26 22 25 21 13 13 16 15 16 4 22 37
23 12 26 26 14 4 7 7 15 21 19 11 11 10 15 26 20 15 20 12 28 37 20 12 9 18 20 44 20 39 27 30 18 23 29 6 14 15 17 7 10 6 8 9 19
24 15 22 24 8 15 15 20 24 22 18 12 15 12 24 19 14 19 14 31 31 30 21 19 16 18 17 11 23 11 13 21 29 6 32 29 28 21 24 10 14 13 18 21 23
10 8 13 15 3 5 20 25 12 17 28 16 18 23 20 24 18 21 32 14 40 34 21 18 5 8 10 21 22 23 36 29 18 15 24 35 31 39 16 12 15 8 14 23 31
3 6 13 10 24 27 32 16 29 14 10 12 11 15 18 13 32 27 33 34 19 21 14 11 12 12 22 37 36 33 35 34 19 20 21 33 41 26 27 33 14 8 23 23 19
8 12 11 35 25 23 26 8 24 23 9 19 22 32 26 22 33 37 36 31 17 15 19 16 11 24 16 22 24 33 34 33 33 29 28 39 34 17 17 28 21 34 42 13 4
25 34 20 20 17 19 19 25 12 21 16 13 25 32 32 29 30 38 43 49 37 34 35 20 9 11 12 20 33 12 2 23 13 18 25 31 39 19 25 28 30 39 18 16 8
Wind_Direction_850mb
360 356 350 346 344 340 337 335 333 329 324 319 316 309 303 306 298 291 276 283 273 242 227 216 203 198 196 198 170 172 235 239 244 237 233 219 232 229 256 244 231 222 236 185 187
356 356 350 346 341 338 334 331 329 327 326 323 319 315 313 303 305 291 292 271 255 226 208 204 189 186 196 201 192 204 229 239 247 233 246 260 253 264 252 234 229 232 233 180 184
357 354 344 344 339 335 332 329 328 324 321 317 315 313 313 315 315 288 263 243 234 200 206 198 191 181 202 189 194 198 225 231 229 230 253 261 261 255 257 250 249 227 217 201 188
354 347 344 341 340 335 331 328 325 321 321 317 309 304 306 314 275 247 250 238 212 187 192 183 181 186 207 208 207 226 232 240 230 229 253 255 265 250 248 251 278 246 215 201 202
344 347 344 343 337 332 327 325 323 321 319 311 304 296 295 249 251 261 237 225 184 185 189 190 191 200 204 215 207 227 235 238 245 252 248 256 254 256 256 252 252 238 225 211 203
346 343 340 341 336 333 328 325 320 320 313 304 299 291 257 252 279 270 237 218 196 200 203 202 209 212 250 227 214 211 234 249 252 251 249 243 250 245 239 241 247 241 234 225 215
343 339 339 336 338 334 333 324 321 321 306 298 287 260 247 246 269 265 260 235 221 210 214 213 214 201 214 236 234 237 251 245 243 244 252 250 251 241 239 238 241 240 236 231 223
343 338 334 336 334 333 333 325 321 312 303 292 285 238 249 265 272 255 241 242 226 218 221 223 215 224 227 230 218 221 237 245 242 226 227 212 252 208 233 232 238 238 233 229 226
334 334 332 332 332 334 335 332 329 313 301 294 249 216 265 274 258 269 243 233 228 228 215 217 217 219 222 228 240 227 233 218 239 207 199 205 259 252 239 228 232 232 227 225 226
332 330 330 333 333 337 338 339 336 310 309 334 198 227 255 273 282 285 261 229 217 225 223 215 215 215 222 211 221 214 221 234 242 213 222 224 250 265 251 242 233 234 228 222 219
337 332 331 333 335 342 347 356 7 323 325 269 275 253 288 295 294 271 258 213 203 212 211 204 210 216 222 213 231 239 230 241 239 226 233 245 257 256 252 245 241 238 231 228 221
339 338 337 335 339 346 352 16 12 326 302 285 273 273 273 282 280 259 273 212 200 214 209 204 214 223 220 217 218 230 237 241 248 206 229 245 262 259 254 249 245 237 235 229 224
338 336 337 337 340 346 353 352 335 335 287 308 277 266 19 338 264 280 244 239 225 231 214 209 219 229 225 217 217 215 221 224 226 212 226 251 266 264 256 249 243 237 235 232 224
338 346 340 340 344 333 339 328 326 330 282 277 3 39 341 338 259 296 275 239 240 243 228 229 236 227 217 220 208 220 213 226 236 228 239 197 264 248 247 244 232 233 227 228 226
339 347 340 339 320 322 324 330 326 139 292 30 7 339 336 339 293 314 327 257 230 230 221 222 225 228 226 221 211 231 211 224 225 222 224 206 263 255 250 251 243 229 228 224 222
342 343 334 330 323 327 330 328 324 234 262 356 337 332 336 352 354 311 338 315 248 239 240 249 236 227 228 228 218 224 224 221 231 233 241 243 227 269 248 253 247 240 234 227 220
336 339 331 323 321 334 340 333 279 261 3 356 337 335 328 330 331 344 345 34 34 308 217 226 230 232 224 221 217 207 205 188 210 216 241 238 229 242 262 264 254 247 239 230 220
343 340 337 337 332 342 347 306 289 330 341 328 328 318 330 356 328 336 357 20 31 13 307 287 212 206 206 209 200 207 195 205 217 228 229 204 238 236 248 246 249 248 248 234 222
346 341 339 341 327 333 332 298 314 348 323 324 319 328 341 346 335 352 13 33 52 34 3 332 308 136 196 212 205 201 218 223 329 226 260 229 243 261 249 250 259 259 243 233 226
346 337 322 317 327 330 287 281 309 326 324 320 313 322 330 345 345 351 1 35 7 13 343 295 290 260 210 209 219 204 191 194 208 214 224 230 234 263 273 274 297 264 240 236 229
349 334 316 326 329 329 291 293 296 288 307 306 311 304 310 346 333 345 13 357 13 337 330 289 265 319 270 198 191 201 196 196 223 228 238 250 250 269 129 106 64 26 3 239 232
349 319 316 347 318 328 297 300 307 299 306 271 284 276 293 335 319 328 334 346 353 331 325 297 289 305 290 301 260 203 197 196 207 201 227 232 239 128 114 30 333 331 309 285 235
332 296 334 352 326 334 325 286 300 291 302 300 296 285 308 318 317 299 325 331 341 333 355 337 1 323 349 13 32 3 337 249 220 269 212 216 230 157 292 349 27 348 348 335 308
342 313 327 330 315 292 319 306 291 298 289 284 276 299 317 311 302 300 309 338 327 320 340 353 336 316 323 311 294 300 305 308 318 204 198 219 234 235 194 294 310 319 338 351 336
338 307 316 299 315 309 299 271 298 297 250 288 283 285 322 292 310 299 316 322 315 308 341 10 280 288 285 278 277 275 280 287 285 283 238 230 227 233 267 298 296 322 332 337 352
308 315 281 286 298 299 302 278 285 293 268 295 288 308 303 294 298 298 308 304 307 304 320 331 285 313 272 270 262 287 297 292 274 264 261 252 258 259 279 282 278 280 298 294 335
317 307 277 281 302 301 309 313 290 306 287 272 301 304 305 310 308 295 286 279 266 275 285 278 271 316 289 319 314 312 46 327 294 255 244 241 251 260 264 264 267 276 281 247 189